CAPE
0 0 0 9 68 15 3 0 0 0 21 0 0 0 0 0 0 0 0 0 0 0 0 0 0 0 0 0 0 0 0 0 0 0 0 0 0 0 0 0 0 0 0
0 0 11 22 67 82 88 0 22 0 0 0 0 0 0 0 0 0 0 0 0 0 0 0 0 0 0 0 0 0 0 0 0 0 0 0 0 0 0 0 0 0 0
201 138 41 67 130 29 1 4 0 0 0 0 0 0 0 0 0 0 0 0 0 0 0 0 0 0 0 0 0 0 0 0 0 0 0 0 0 0 0 0 0 0 0
20 141 148 149 61 0 0 0 0 0 0 0 0 1 0 0 0 0 0 0 0 0 0 0 0 0 0 0 0 0 0 0 0 0 0 0 0 0 0 0 0 0 0
0 0 0 0 0 0 0 1 1 0 0 0 0 0 0 0 0 0 0 0 0 0 0 0 0 0 0 0 0 0 0 0 0 0 0 0 0 0 0 0 0 0 0
0 0 0 0 0 0 3 1 0 0 0 0 0 0 0 0 0 0 0 0 0 0 0 0 0 0 0 0 0 0 0 0 0 0 0 0 0 0 0 0 7 9 7
1 1 1 1 0 0 0 2 0 0 0 0 0 0 0 0 0 0 0 0 0 0 0 0 0 0 0 0 0 0 0 0 0 0 0 0 0 0 0 0 7 19 14
0 0 1 0 3 1 1 0 0 0 0 0 0 0 0 0 0 0 0 0 0 0 0 0 0 0 0 0 0 0 0 0 0 0 0 0 0 0 0 0 0 0 0
0 0 0 0 0 0 4 0 0 0 0 0 0 0 0 0 0 0 0 0 0 0 0 0 0 0 0 0 0 0 0 0 0 2 3 6 7 7 5 3 1 0 0
0 0 0 0 0 0 0 0 0 0 0 0 0 0 0 0 0 0 0 0 0 0 0 0 0 0 0 0 0 0 3 0 0 0 2 2 2 1 0 0 0 1 15
0 0 0 0 0 0 0 0 0 0 0 0 0 0 0 0 0 0 0 0 0 0 0 0 0 0 0 0 0 0 0 0 1 0 0 1 0 0 1 0 0 0 1
0 0 0 0 0 0 0 0 0 0 0 0 0 0 0 0 0 0 0 0 0 0 0 0 0 0 0 0 0 0 0 0 0 0 2 1 1 1 3 1 0 0 0
0 0 0 0 0 0 0 0 0 0 0 0 0 0 0 0 0 0 0 0 0 0 0 0 0 0 0 0 0 0 0 0 0 0 1 3 2 2 2 2 2 0 1
0 0 0 0 0 0 0 0 0 0 0 0 0 0 0 0 0 0 0 0 0 0 0 0 0 0 0 0 0 0 0 0 0 0 1 3 0 0 2 0 4 1 0
0 0 0 0 0 0 0 0 0 0 0 0 0 0 0 0 0 0 0 0 0 0 0 0 0 0 0 0 0 0 0 0 0 0 0 0 1 3 1 1 1 0 0
0 0 0 0 0 0 0 0 0 0 0 0 0 0 0 0 0 0 0 0 0 0 0 0 0 0 0 0 0 0 0 0 1 0 0 1 2 3 4 1 0 5 0
0 0 0 0 0 0 0 0 0 0 0 0 0 0 0 0 0 0 0 0 0 0 0 0 0 0 0 0 0 0 0 0 0 0 0 1 3 3 3 3 1 0 5
0 0 0 0 0 0 0 0 0 0 0 0 0 0 0 0 0 0 0 0 0 0 0 0 0 0 0 0 1 1 0 0 0 0 0 0 0 1 1 4 3 0 0
0 0 0 0 0 0 0 0 0 0 0 0 0 0 0 0 0 0 0 0 0 0 0 0 0 0 0 0 0 0 0 0 0 0 0 0 0 0 0 3 2 1 0
0 0 0 0 0 0 0 0 0 0 0 0 0 0 0 0 0 0 0 0 0 0 0 0 0 0 0 0 0 0 0 0 0 0 0 0 0 0 0 0 1 0 1
0 0 0 0 0 0 0 1 1 0 0 0 0 0 0 0 0 0 0 0 0 0 0 0 0 0 0 0 0 0 0 0 0 0 0 0 0 0 0 1 0 0 3
0 0 0 0 1 0 0 1 0 0 0 0 0 0 0 0 0 0 0 0 0 0 0 0 0 0 0 0 0 0 0 0 0 0 0 0 0 0 0 0 0 0 0
0 0 0 0 0 0 0 0 0 0 0 0 0 0 0 0 0 0 0 0 0 0 0 0 0 0 0 0 0 0 0 0 0 0 0 0 0 0 0 0 0 0 0
0 0 0 0 0 0 0 0 0 0 0 0 0 0 0 0 0 0 0 0 0 0 0 0 0 0 0 0 0 0 0 0 0 0 0 0 0 0 0 0 0 0 0
0 0 0 0 0 0 0 0 0 0 0 0 0 0 0 0 0 0 0 0 0 0 0 0 0 0 0 0 0 0 0 0 0 0 0 0 0 0 0 0 0 0 0
0 0 0 0 0 0 0 0 0 0 0 0 0 0 0 0 0 0 0 0 0 0 0 0 0 0 0 0 0 5 0 0 0 0 0 0 0 0 0 0 0 0 0
CIN
0 0 0 -287 -197 -251 -127 0 0 0 -98 -0 0 0 0 0 0 0 0 0 0 0 0 0 0 0 0 0 0 0 0 0 0 0 0 0 0 0 0 0 0 0 0
0 0 -196 -177 -172 -151 -114 0 -43 0 0 0 0 0 0 0 0 0 0 0 0 0 0 0 0 0 0 0 0 0 0 0 0 -6 -29 0 0 0 0 0 0 0 0
-133 -130 -163 -86 -74 -100 -57 -203 0 0 0 0 0 0 0 0 0 0 0 0 0 0 0 0 0 0 0 0 0 0 0 0 0 0 0 0 0 0 0 0 0 0 0
-152 -272 -201 -100 -67 0 0 0 0 0 0 0 0 0 0 0 0 0 0 0 0 0 0 0 0 0 0 0 0 0 0 0 0 0 0 0 0 0 0 0 0 0 0
0 0 0 0 0 0 0 0 0 0 0 0 0 0 0 0 0 0 0 0 0 0 0 0 0 0 0 0 0 0 0 0 0 0 0 0 0 0 0 0 0 0 0
0 0 0 0 0 0 0 0 0 0 0 0 0 0 0 0 0 0 0 0 0 0 0 0 0 0 0 0 0 0 0 0 0 0 0 0 0 0 0 -0 -2 -0 -1
0 0 0 0 0 0 0 0 0 0 -0 0 0 0 0 0 0 0 0 0 0 0 0 0 0 0 0 0 0 0 0 0 0 0 0 0 0 0 0 -1 -1 -1 -1
0 0 0 0 0 0 0 0 0 0 0 0 0 0 0 0 0 0 0 0 0 0 0 0 0 0 0 0 0 0 0 0 0 0 0 0 0 0 0 0 -0 -2 -0
0 0 0 0 0 0 0 0 0 0 0 0 0 0 0 0 0 0 0 0 0 0 0 0 0 0 0 0 0 0 0 0 -0 0 -0 0 0 0 -0 -1 -1 0 0
0 0 0 0 0 0 0 0 0 0 0 0 0 0 0 0 0 0 0 0 0 0 0 0 0 0 0 0 0 0 -0 -0 0 -0 -1 -0 -0 -0 -3 0 0 -0 -0
0 0 0 0 0 0 0 0 0 0 0 0 0 0 0 0 0 0 0 0 0 0 0 0 0 0 0 0 0 0 0 0 -0 0 0 -0 -0 0 -0 0 0 0 -3
0 0 0 0 0 0 0 0 0 0 0 0 0 0 0 0 0 0 0 0 0 0 0 0 0 0 0 0 0 0 0 0 0 0 0 -0 -0 -0 0 -0 -1 0 0
0 0 0 0 0 0 0 0 0 0 0 0 0 0 0 0 0 0 0 0 0 0 0 0 0 0 0 0 0 0 0 0 0 0 -0 0 -0 -0 -0 0 -4 0 -1
0 0 0 0 0 0 0 0 0 0 0 0 0 0 0 0 0 0 0 0 0 0 0 0 0 0 0 0 0 -0 0 0 0 0 -0 -0 0 -0 -0 -0 0 -0 0
0 0 0 0 0 0 0 0 0 0 0 0 0 0 0 0 0 0 0 0 0 0 0 0 0 0 0 0 -0 0 -0 -0 -0 -0 -0 0 -0 -0 -0 -1 -0 0 0
0 0 0 0 0 0 0 0 0 0 0 0 0 0 0 0 0 0 0 0 0 0 0 0 0 0 0 0 0 0 -0 -0 -0 -0 -0 -0 -0 0 0 -0 0 0 0
0 0 0 0 0 0 0 0 0 0 0 0 0 0 0 0 0 0 0 0 0 0 0 0 0 0 0 0 -0 -1 0 0 -0 0 0 -0 0 0 0 0 -0 -0 0
0 0 0 0 0 0 0 0 0 0 0 0 0 0 0 0 0 0 0 0 0 0 0 0 0 0 0 -0 0 -0 0 0 0 0 0 0 0 -1 -0 0 0 0 -0
0 0 0 0 0 0 0 0 0 0 0 0 0 0 0 0 0 0 0 0 0 0 0 0 0 0 0 0 0 0 0 0 0 0 0 0 0 -0 -0 0 -0 -0 0
0 0 0 0 0 -0 0 0 0 0 0 0 0 0 0 0 0 0 0 0 0 0 0 0 0 0 0 0 0 0 0 0 0 0 0 0 0 0 -0 -1 -0 -0 0
0 0 0 0 0 0 0 0 0 0 0 0 0 0 0 0 0 0 0 0 0 0 0 0 0 0 0 0 0 0 0 0 0 0 0 0 0 0 0 -0 -0 0 0
0 0 -0 -0 0 0 0 0 0 0 0 0 0 0 0 0 0 0 0 0 0 0 0 0 0 0 0 0 0 0 0 0 0 0 0 0 0 0 0 -0 0 0 0
0 0 -0 0 0 0 0 0 0 0 0 0 0 0 0 0 0 0 0 0 0 0 0 0 0 0 0 0 0 0 0 0 0 0 0 0 0 0 0 0 0 0 0
0 0 0 0 0 0 0 0 0 0 0 0 0 0 0 0 0 0 0 0 0 0 0 0 0 0 0 0 0 0 0 0 0 0 0 0 0 0 0 0 0 0 0
0 0 0 0 0 0 0 0 0 0 0 0 0 0 0 0 0 0 0 0 0 0 0 0 0 0 0 0 0 0 0 0 0 0 0 0 0 0 0 0 0 0 0
-0 -0 0 0 0 0 0 0 0 0 0 0 0 0 0 0 0 0 0 0 0 0 0 0 0 0 0 0 0 0 0 0 0 0 0 0 0 0 0 0 0 0 0
Wind_Speed
21 19 15 13 8 7 7 6 4 2 7 10 11 10 10 8 9 8 7 9 9 7 5 5 5 4 2 2 3 3 3 4 7 6 4 4 3 6 7 5 7 8 9
8 7 8 8 9 11 12 10 12 10 5 5 8 9 10 9 8 9 9 8 10 8 7 5 4 3 3 3 3 4 4 5 5 11 4 4 7 7 8 9 9 8 9
11 10 9 10 5 8 11 11 8 9 9 8 9 10 9 9 9 9 10 10 8 7 6 5 4 4 3 1 3 4 4 5 5 5 9 3 4 4 6 7 8 6 7
16 12 11 13 17 16 9 8 8 9 10 8 7 7 9 9 9 9 9 8 7 6 5 4 3 1 2 4 4 4 3 4 4 4 6 6 3 3 4 5 8 3 8
7 10 9 8 8 10 10 10 9 9 8 8 9 8 9 9 7 9 9 8 7 5 4 3 2 6 12 10 4 4 4 3 3 4 5 5 6 4 5 4 6 7 7
10 10 10 11 10 11 10 10 10 10 10 10 9 9 9 5 13 12 9 7 6 5 4 4 6 9 8 9 8 5 1 3 3 3 5 8 9 7 5 7 9 9 11
11 11 12 12 11 10 11 10 11 11 10 10 9 10 9 9 14 12 11 6 6 6 6 5 5 5 5 5 7 8 5 8 4 5 8 8 10 7 9 12 11 12 13
13 13 12 11 11 12 12 12 11 11 12 11 10 9 9 8 12 13 12 7 7 7 6 5 5 5 5 6 5 5 5 5 6 6 8 11 11 11 9 11 12 13 13
14 14 14 14 14 14 13 14 11 11 10 9 8 9 9 7 14 14 11 7 6 5 5 5 5 5 8 9 4 4 5 6 7 14 17 20 22 23 19 10 9 10 11
13 14 14 13 13 14 13 12 10 9 10 9 9 9 12 11 14 15 10 5 6 4 4 4 7 4 7 8 3 4 6 7 9 9 9 12 15 15 19 10 9 10 9
10 11 12 12 12 12 12 7 7 9 10 9 10 7 9 9 10 15 13 5 4 4 3 1 1 6 8 8 8 4 7 10 9 8 8 8 8 10 10 9 10 9 9
11 11 11 11 9 9 9 8 10 11 11 10 10 8 5 6 12 13 13 10 6 3 2 0 2 7 7 6 4 12 14 8 6 7 8 9 10 10 11 11 10 9 10
11 9 8 8 7 9 9 9 9 9 9 8 8 8 6 5 5 12 10 9 7 3 1 2 5 6 6 4 10 11 6 4 5 6 8 9 10 12 14 14 13 11 12
10 9 8 8 8 8 6 5 7 6 7 7 7 7 6 5 4 3 4 2 3 2 1 2 3 3 3 2 3 4 4 4 5 6 7 9 10 10 11 9 13 9 5
10 9 9 8 10 10 10 7 5 5 4 7 5 7 7 4 3 4 3 1 1 1 0 2 2 2 3 3 3 4 4 5 6 7 7 8 9 10 10 10 11 3 2
11 8 7 8 7 8 8 9 17 13 17 16 13 7 5 10 9 4 2 2 3 3 2 1 2 2 2 3 2 3 3 5 6 7 7 7 9 9 10 11 9 12 4
12 10 8 9 8 8 7 7 7 9 14 13 12 12 11 9 5 2 3 1 3 4 2 2 1 1 2 3 3 4 4 4 6 5 7 8 8 9 11 10 9 9 11
14 15 9 8 7 7 6 6 5 5 3 3 4 6 8 7 4 5 5 3 2 3 1 2 1 1 2 4 4 5 5 4 4 7 6 6 8 7 9 9 9 10 9
12 10 11 10 8 8 7 6 5 4 3 3 3 4 6 6 3 4 5 1 1 2 2 2 1 2 2 3 3 4 2 3 5 5 4 5 7 7 9 9 9 13 13
12 14 10 7 6 6 5 4 3 3 2 2 2 3 3 2 1 1 1 1 2 1 1 1 1 2 2 3 3 3 3 4 4 5 4 5 3 7 8 9 8 10 10
7 7 9 7 5 5 4 4 3 2 2 2 2 1 3 2 2 1 1 2 1 0 0 1 2 2 2 3 3 2 4 5 6 5 6 6 6 7 8 8 8 9 10
7 6 6 6 5 5 4 3 2 2 2 3 2 2 0 0 1 1 1 1 0 1 0 0 2 2 3 4 3 3 5 5 4 6 6 7 7 8 8 8 10 9 9
7 6 6 6 5 4 3 2 3 3 2 2 1 1 0 1 1 1 2 1 1 1 2 2 2 3 3 3 3 4 7 7 7 8 8 9 9 8 8 9 9 9 9
7 7 7 5 4 3 3 3 2 3 3 2 2 2 3 3 2 3 2 2 2 2 1 2 3 4 4 4 4 4 6 7 7 9 11 10 10 11 9 10 9 11 10
6 6 6 5 4 4 4 4 3 3 2 2 2 2 2 2 2 2 2 2 1 2 3 4 3 5 7 8 9 10 10 13 11 14 9 10 12 14 12 10 11 10 11
8 7 6 5 5 5 5 4 4 3 2 1 1 1 1 2 1 2 2 0 2 3 5 4 5 8 9 8 9 12 13 15 14 16 11 10 10 10 9 11 14 9 10
Wind_Direction
211 214 216 219 204 176 152 138 133 260 216 190 173 166 159 164 147 145 159 152 149 150 148 158 160 149 190 192 219 224 242 228 267 272 227 254 265 262 274 251 232 229 234
223 229 216 130 148 150 155 170 233 194 212 174 162 162 156 151 147 148 143 151 147 154 162 168 152 191 213 220 224 243 241 251 258 280 271 238 230 246 248 255 256 242 233
180 182 173 186 196 198 184 208 210 162 148 151 157 152 144 148 144 144 144 149 150 156 157 160 168 187 228 298 313 289 266 273 277 281 291 274 254 261 271 265 256 240 232
182 175 176 183 204 223 174 149 143 146 139 139 138 134 136 137 137 140 143 140 140 139 146 184 196 248 276 273 267 310 335 331 311 303 298 294 261 273 259 275 279 270 271
183 165 157 142 151 152 153 143 135 130 126 127 125 123 132 136 140 143 136 140 131 148 145 169 43 52 75 71 76 29 14 345 325 314 302 306 302 301 287 277 273 281 274
134 137 135 136 146 148 135 126 124 127 129 127 131 134 133 134 134 123 127 129 138 140 122 82 99 74 74 79 79 76 328 328 307 284 299 286 292 283 286 289 287 286 281
138 140 143 145 141 138 131 138 135 133 131 132 136 137 138 134 134 130 123 120 112 107 102 84 78 54 56 50 25 16 2 335 264 251 276 274 285 284 289 293 289 286 286
145 144 144 145 145 143 146 139 141 143 144 145 140 137 123 130 131 125 113 109 102 95 90 88 85 57 39 24 17 343 315 289 289 294 284 284 278 282 272 280 285 285 280
153 152 155 154 153 150 149 147 144 137 134 133 127 115 113 124 121 119 114 108 99 90 83 68 66 41 11 359 334 295 302 293 295 303 297 295 293 287 278 289 286 288 285
159 161 150 150 147 146 142 141 139 136 133 129 117 120 120 113 110 113 107 110 101 91 67 61 40 16 341 337 343 310 325 327 320 318 312 305 306 296 275 250 254 271 281
142 140 135 142 140 141 140 132 122 118 116 118 113 100 100 110 112 111 109 100 114 117 119 108 321 336 339 349 359 340 341 340 335 326 320 314 302 311 302 265 252 255 269
136 134 134 136 141 144 124 117 121 125 122 122 117 102 92 97 110 109 106 107 118 122 114 92 270 334 353 6 19 358 355 346 339 336 326 321 319 311 313 294 266 253 242
132 129 122 111 119 123 124 127 121 125 129 134 132 126 119 95 87 96 97 102 99 107 126 322 348 358 12 26 10 2 355 339 329 331 328 320 314 313 308 311 287 265 264
117 110 109 107 91 83 85 102 121 122 131 134 137 134 128 125 113 107 97 100 81 113 285 325 322 334 55 45 355 4 352 338 330 321 317 316 311 317 316 320 304 290 242
106 101 91 88 89 80 60 50 70 49 96 127 122 137 142 140 136 134 116 137 178 225 313 25 51 50 39 10 9 4 345 341 335 328 316 322 324 323 321 327 328 280 239
105 101 101 98 92 95 98 83 61 72 79 85 91 108 93 119 123 95 63 54 19 14 78 68 60 34 23 2 7 342 331 328 333 322 325 320 322 325 321 329 330 324 267
115 112 104 100 102 107 103 108 110 69 76 85 97 108 114 125 130 47 23 25 69 58 83 74 98 28 336 356 347 337 324 324 324 323 313 325 318 322 324 325 330 325 318
94 92 95 93 96 93 93 94 98 113 123 119 109 129 144 122 66 16 352 69 55 44 73 89 45 5 357 351 339 326 318 322 322 316 312 316 311 321 320 322 323 324 316
87 84 86 83 80 85 92 102 110 123 138 155 153 171 155 139 63 23 37 77 116 91 64 26 15 19 357 332 301 290 278 291 298 291 282 301 305 327 310 311 313 315 315
82 92 101 108 106 98 92 97 120 125 112 114 134 147 135 93 43 355 51 99 118 102 26 18 3 348 326 295 286 284 309 297 291 286 295 288 295 306 301 304 313 314 310
92 90 87 82 81 85 92 95 96 100 102 98 104 100 150 158 201 195 151 151 158 61 138 355 333 307 293 274 273 286 286 280 280 287 299 302 297 296 299 296 307 303 299
75 74 76 82 77 68 65 72 84 87 77 99 98 137 247 176 256 169 141 143 44 105 97 315 318 294 268 279 285 274 281 286 287 286 288 291 291 292 293 302 297 296 298
70 76 76 74 76 73 50 63 72 72 87 95 67 66 92 100 80 53 44 59 81 17 10 44 260 286 279 275 264 260 296 291 287 290 290 288 287 288 292 288 290 291 293
64 62 63 64 55 53 56 58 43 45 43 49 48 60 57 51 52 58 34 23 6 5 320 302 285 288 297 292 280 270 281 284 285 285 289 291 289 288 283 281 280 279 281
66 63 57 53 49 48 45 43 45 42 46 61 81 64 64 77 72 48 355 7 95 311 295 287 279 283 291 293 293 290 284 294 307 297 290 286 282 282 276 272 271 271 274
55 52 49 44 39 34 31 25 25 15 354 352 30 29 83 76 49 343 340 182 296 284 292 281 282 293 298 297 295 310 317 305 301 299 300 289 280 276 270 267 268 264 268